Content
SEND FEEDBACK

Daily
Averages
Monthly
Summary
Canada

BEAR RIVER, NOVA SCOTIA


Home > North America > Canada > Nova Scotia
Elevation: 25 feet     Latitude: 44 34N     Longitude: 65 38W

WEATHER
 
SELECT A DAY
Number of Records: 136,125;   Date Range: 12/29/99 - 12/18/14
 
SHARE

PRINT THIS DATA

[ ← Previous Day ]
WEATHER ALMANAC - FEBRUARY 5, 2013
[ Next Day → ]
[ °C ]   °F
Weather ElementAverageHighLow
Temperature14.5 °F20.7 °F (3:00 pm)6.8 °F (10:00 pm)
Dewpoint2.3 °F5.7 °F (6:00 pm)-1.8 °F (11:00 am)
Humidity58.4 %86 % (9:00 pm)24 % (2:00 pm)
Barometer29.90 in30.04 in (10:00 pm)29.66 in (1:00 am)
Wind Speed7.3 mph11.5 mph (1:00 am)
Wind Gust25.3 mph (1:00 am)
Weather ElementAverage
Wind DirectionWSW (260.7 °)

Weather ElementTotal
Precipitation---
Heating Degree Days51.3 (Base 65)
Averaged from 27 records on February 5, 2013
WEATHER CONDITIONS BREAKOUT
WIND DIRECTION BREAKOUT
WEATHER BY HOUR - FEBRUARY 5, 2013
[ °C ]   °F
Local TimeTemperatureDewpointHumidityBarometerVisibilityWind DirectionWind SpeedGust SpeedPrecipitationEventsConditions
1:00 AM18.1 °F5.2 °F57 %29.66 inWNW (290°)11.5 mph25.3 mph
2:00 AM17.0 °F2.0 °F38 %29.69 inWNW (290°)9.2 mph
2:00 AM16.7 °F2.5 °F54 %29.69 inWNW (290°)9.2 mph18.4 mph
3:00 AM15.8 °F2.8 °F57 %29.72 inWNW (300°)11.5 mph20.7 mph
4:00 AM15.1 °F3.2 °F59 %29.74 inWNW (300°)10.4 mph19.6 mph
5:00 AM14.0 °F2.3 °F60 %29.78 inWNW (300°)11.5 mph21.9 mph
6:00 AM12.7 °F3.2 °F66 %29.81 inNW (310°)9.2 mph21.9 mph
7:00 AM12.4 °F4.1 °F69 %29.84 inWNW (300°)8.1 mph19.6 mph
8:00 AM12.0 °F3.0 °F54 %29.88 inWNW (300°)6.9 mph
8:00 AM12.0 °F3.0 °F67 %29.88 inWNW (300°)6.9 mph
9:00 AM13.8 °F1.8 °F59 %29.91 inNW (320°)10.4 mph18.4 mph
10:00 AM16.0 °F0.1 °F50 %29.94 inNW (310°)8.1 mph20.7 mph
11:00 AM16.3 °F-1.8 °F45 %29.95 inWNW (300°)11.5 mph24.2 mph
12:00 PM17.8 °F0.1 °F46 %29.95 inNW (320°)9.2 mph20.7 mph
1:00 PM19.0 °F0.7 °F45 %29.93 inNW (310°)9.2 mph19.6 mph
2:00 PM20.0 °F-1.0 °F24 %29.94 inWNW (300°)6.9 mph
2:00 PM20.5 °F-1.5 °F38 %29.94 inWNW (300°)6.9 mph20.7 mph
3:00 PM20.7 °F-0.9 °F39 %29.95 inWNW (290°)9.2 mph17.3 mph
4:00 PM19.9 °F1.0 °F44 %29.97 inWNW (290°)9.2 mph
5:00 PM17.8 °F3.9 °F55 %29.99 inWNW (300°)5.8 mph
6:00 PM15.1 °F5.7 °F66 %30.01 inWNW (300°)3.5 mph
7:00 PM10.4 °F3.7 °F74 %30.02 inNW (310°)1.2 mph
8:00 PM9.0 °F4.0 °F73 %30.02 inNNE (20°)1.2 mph
8:00 PM8.6 °F4.5 °F83 %30.02 inNNE (20°)1.2 mph
9:00 PM7.0 °F3.6 °F86 %30.03 inNorth (10°)1.2 mph
10:00 PM6.8 °F2.7 °F83 %30.04 inSSW (210°)4.6 mph
11:00 PM6.8 °F3.2 °F85 %30.04 inSSE (150°)2.3 mph
Hourly data recorded from CWKG, located miles away from Bear River, Nova Scotia







STORIES FROM OUR PARTNERS